{"data":{"norad_id":56490,"epoch":"2026-09-20T22:16:49.034784Z","epoch_age_seconds":74983,"freshness":"FRESH","line1":"1 56490U 23064AU  26263.92834531  .00000371  00000+0  38890-4 0  9995","line2":"2 56490  69.9995 332.3398 0003277 269.5587  90.5197 14.98335377185471","mean_motion":14.98335377,"eccentricity":0.0003277,"inclination_deg":69.9995,"raan_deg":332.3398,"arg_perigee_deg":269.5587,"mean_anomaly_deg":90.5197,"bstar":3.889e-5,"rev_number":18547,"period_min":96.106654231391,"perigee_km":569.76169030379,"apogee_km":574.3168358266,"semimajor_km":6950.1762630652,"source":"CELESTRAK","updated_at":"2026-09-21T09:00:33.449475Z"}}